CW5920 Weather Reports


Display with metric or nautical units.
time (UTC)temp
F
wind
direction
speed
MPH
gust
MPH
rain 1hr
in
rain 24hr
in
rain mn
in
humidity
%
barometer
mb
20260904164516 91 203 1.0 6.0 0.00 0.01 0.00 56 1014.9
20260904163536 91 158 3.0 10.0 0.00 0.01 0.00 61 1015.0
20260904162536 90 158 1.0 6.0 0.00 0.01 0.00 63 1015.0
20260904161516 89 158 3.0 12.0 0.00 0.01 0.00 62 1015.1
20260904160516 88 158 3.0 9.0 0.00 0.01 0.00 67 1014.9
20260904155516 88 158 1.0 10.0 0.00 0.01 0.00 67 1014.9
20260904154556 87 158 2.0 10.0 0.00 0.01 0.00 70 1014.8
20260904153516 86 180 1.0 9.0 0.00 0.01 0.00 72 1014.9
20260904152516 85 158 2.0 10.0 0.00 0.01 0.00 76 1014.7
20260904151516 84 158 3.0 16.0 0.00 0.01 0.00 78 1014.7
20260904150536 82 158 1.0 10.0 0.00 0.01 0.00 86 1014.6
20260904145536 81 158 4.0 10.0 0.00 0.01 0.00 90 1014.7
20260904144516 80 135 4.0 8.0 0.00 0.01 0.00 91 1014.7
20260904143516 80 135 5.0 9.0 0.00 0.01 0.00 92 1014.8
20260904142536 79 113 5.0 10.0 0.00 0.01 0.00 92 1014.8
20260904141516 79 113 5.0 9.0 0.00 0.01 0.00 93 1014.6
20260904140516 79 113 3.0 7.0 0.00 0.01 0.00 93 1014.7
20260904135516 79 113 4.0 7.0 0.00 0.01 0.00 93 1014.5
20260904134516 78 135 2.0 6.0 0.00 0.01 0.00 94 1014.5
20260904133516 78 135 3.0 7.0 0.00 0.01 0.00 94 1014.4
20260904132516 78 135 3.0 8.0 0.00 0.01 0.00 94 1014.3
20260904131516 77 135 2.0 7.0 0.00 0.01 0.00 94 1014.2
20260904130516 77 90 3.0 6.0 0.00 0.01 0.00 94 1014.1
20260904125516 77 113 2.0 6.0 0.00 0.01 0.00 94 1014.0
20260904124516 77 0.0 3.0 0.00 0.01 0.00 94 1013.9
20260904123516 77 135 2.0 5.0 0.00 0.01 0.00 94 1013.8
20260904122516 77 113 1.0 3.0 0.00 0.01 0.00 94 1013.8
20260904121516 77 0.0 3.0 0.00 0.01 0.00 94 1013.7
20260904120516 77 135 2.0 7.0 0.00 0.01 0.00 94 1013.5
20260904115515 77 135 2.0 4.0 0.00 0.01 0.00 93 1013.4
20260904114536 77 135 3.0 5.0 0.00 0.01 0.00 93 1013.6
20260904113516 77 113 1.0 3.0 0.00 0.01 0.00 93 1013.5
20260904112516 77 113 1.0 3.0 0.00 0.01 0.00 93 1013.5
20260904111516 77 0.0 0.0 0.00 0.01 0.00 93 1013.4
20260904110516 77 113 2.0 6.0 0.00 0.01 0.00 93 1013.2
20260904105516 77 135 3.0 8.0 0.00 0.01 0.00 93 1013.2
20260904104516 77 135 2.0 4.0 0.00 0.01 0.00 93 1013.3
20260904103535 77 135 1.0 3.0 0.00 0.01 0.00 93 1013.3
20260904102516 77 135 1.0 4.0 0.00 0.01 0.00 93 1013.2
20260904101515 77 135 1.0 4.0 0.00 0.01 0.00 93 1013.2
20260904100515 77 113 1.0 4.0 0.00 0.01 0.00 93 1013.1
20260904095535 77 90 1.0 4.0 0.00 0.01 0.00 92 1013.2
20260904094516 77 113 3.0 6.0 0.00 0.01 0.00 92 1013.0
20260904093535 77 158 2.0 4.0 0.00 0.01 0.00 92 1012.9
20260904092516 77 135 4.0 7.0 0.00 0.01 0.00 92 1012.9
20260904091516 77 135 4.0 9.0 0.00 0.01 0.00 92 1012.9
20260904090536 77 135 3.0 6.0 0.00 0.01 0.00 92 1013.0
20260904085537 77 135 4.0 9.0 0.00 0.01 0.01 92 1013.0
20260904084516 78 135 3.0 7.0 0.00 0.01 0.01 92 1012.9
20260904083537 77 135 4.0 11.0 0.00 0.01 0.01 92 1012.8
20260904082517 77 158 4.0 10.0 0.00 0.01 0.01 92 1012.7
20260904081517 77 135 5.0 11.0 0.00 0.01 0.01 92 1012.7
20260904080516 77 158 5.0 10.0 0.00 0.01 0.01 92 1012.8
20260904075516 77 135 7.0 11.0 0.00 0.01 0.01 92 1012.8
20260904074517 77 158 5.0 10.0 0.00 0.01 0.01 92 1013.0
20260904073516 77 135 5.0 10.0 0.00 0.01 0.01 92 1013.0
20260904072557 77 135 6.0 11.0 0.00 0.01 0.01 92 1013.1
20260904071517 77 135 6.0 11.0 0.00 0.01 0.01 91 1013.0
20260904070517 77 135 5.0 10.0 0.00 0.01 0.01 91 1012.9
20260904065517 77 135 5.0 9.0 0.00 0.01 0.01 91 1013.0
20260904064517 77 135 2.0 7.0 0.01 0.01 0.01 90 1013.2
20260904063536 77 158 1.0 6.0 0.01 0.01 0.01 90 1013.3
20260904062556 78 135 2.0 8.0 0.01 0.01 0.01 89 1013.2
20260904061517 78 113 3.0 7.0 0.01 0.01 0.01 88 1013.4
20260904060516 78 135 2.0 5.0 0.01 0.01 0.01 87 1013.6
20260904055516 79 135 1.0 7.0 0.01 0.01 0.01 85 1013.3
20260904054516 79 135 9.0 16.0 0.00 0.00 0.00 84 1013.0
20260904053517 79 135 2.0 8.0 0.00 0.00 0.00 83 1013.5
20260904052516 79 0.0 2.0 0.00 0.00 0.00 83 1013.7
20260904051517 79 90 7.0 11.0 0.00 0.00 0.00 83 1013.3
20260904050517 79 113 5.0 12.0 0.00 0.00 0.00 82 1013.1
20260904045537 79 113 7.0 14.0 0.00 0.00 0.00 81 1013.0
20260904044516 79 113 9.0 14.0 0.00 0.00 0.00 80 1013.0
20260904043537 80 113 9.0 14.0 0.00 0.00 0.00 79 1013.0
20260904042516 80 113 8.0 15.0 0.00 0.00 0.00 79 1013.0
20260904041537 80 113 8.0 12.0 0.00 0.00 0.00 78 1013.0
20260904040516 80 113 8.0 13.0 0.00 0.00 0.00 77 1013.0
20260904035516 80 113 5.0 11.0 0.00 0.00 0.00 77 1013.2
20260904034516 80 113 8.0 11.0 0.00 0.00 0.00 76 1013.0
20260904033516 80 113 6.0 11.0 0.00 0.00 0.00 76 1013.0
20260904032536 80 113 9.0 12.0 0.00 0.00 0.00 75 1012.9
20260904031516 81 113 6.0 11.0 0.00 0.00 0.00 74 1012.7
20260904030516 81 113 8.0 14.0 0.00 0.00 0.00 74 1012.7
20260904025516 81 90 7.0 13.0 0.00 0.00 0.00 74 1012.6
20260904024517 81 113 9.0 14.0 0.00 0.00 0.00 73 1012.5
20260904023516 81 113 7.0 11.0 0.00 0.00 0.00 72 1012.4
20260904022516 82 113 6.0 12.0 0.00 0.00 0.00 71 1012.3
20260904021537 82 113 7.0 13.0 0.00 0.00 0.00 70 1012.1
20260904020516 82 113 9.0 13.0 0.00 0.00 0.00 70 1012.0
20260904015536 82 113 11.0 18.0 0.00 0.00 0.00 69 1011.7
20260904014517 83 113 9.0 14.0 0.00 0.00 0.00 69 1011.5
20260904013516 83 113 7.0 12.0 0.00 0.00 0.00 69 1011.5
20260904012556 83 113 8.0 13.0 0.00 0.00 0.00 67 1011.2
20260904011516 84 113 12.0 21.0 0.00 0.00 0.00 65 1011.1
20260904010516 85 113 10.0 17.0 0.00 0.00 0.00 63 1011.1
20260904005516 85 113 9.0 16.0 0.00 0.00 0.00 62 1011.0
20260904004536 86 113 11.0 17.0 0.00 0.00 0.00 62 1011.0
20260904003516 87 113 9.0 14.0 0.00 0.00 0.00 63 1010.9
20260904002516 87 113 11.0 17.0 0.00 0.00 0.00 62 1011.1
20260904001557 87 113 12.0 17.0 0.00 0.00 0.00 62 1011.0
20260904000516 88 113 13.0 18.0 0.00 0.00 0.00 63 1010.9
20260903235516 89 113 13.0 20.0 0.00 0.00 0.00 63 1010.9
20260903234516 90 113 11.0 17.0 0.00 0.00 0.00 62 1010.8
20260903233517 90 113 13.0 18.0 0.00 0.00 0.00 61 1010.7
20260903232516 91 113 11.0 16.0 0.00 0.00 0.00 61 1010.5
20260903231517 91 113 11.0 17.0 0.00 0.00 0.00 62 1010.5
20260903230516 91 113 10.0 16.0 0.00 0.00 0.00 62 1010.5
20260903225516 91 113 10.0 18.0 0.00 0.00 0.00 63 1010.4
20260903224516 91 90 11.0 19.0 0.00 0.00 0.00 63 1010.4
20260903223516 91 113 11.0 17.0 0.00 0.00 0.00 63 1010.5
20260903222516 91 113 9.0 12.0 0.00 0.00 0.00 63 1010.5
20260903221516 91 90 10.0 19.0 0.00 0.00 0.00 64 1010.6
20260903220516 91 113 11.0 15.0 0.00 0.00 0.00 63 1010.6
20260903215516 91 113 10.0 16.0 0.00 0.00 0.00 63 1010.6
20260903214516 91 113 9.0 13.0 0.00 0.00 0.00 64 1010.6
20260903213516 91 113 10.0 16.0 0.00 0.00 0.00 65 1010.6
20260903212516 92 90 9.0 16.0 0.00 0.00 0.00 63 1010.7
20260903211516 92 113 8.0 17.0 0.00 0.00 0.00 64 1010.8
20260903210516 91 113 9.0 16.0 0.00 0.00 0.00 65 1010.8
20260903205516 91 113 10.0 14.0 0.00 0.00 0.00 65 1010.9
20260903204556 90 90 9.0 15.0 0.00 0.00 0.00 68 1011.0
20260903203516 89 113 11.0 16.0 0.00 0.00 0.00 69 1011.2
20260903202516 89 113 10.0 16.0 0.00 0.00 0.00 69 1011.2
20260903201516 89 113 11.0 17.0 0.00 0.00 0.00 68 1011.4
20260903200516 89 113 11.0 16.0 0.00 0.00 0.00 68 1011.4
20260903195516 89 113 10.0 14.0 0.00 0.00 0.00 70 1011.5
20260903194516 88 113 10.0 15.0 0.00 0.00 0.00 70 1011.7
20260903193516 88 135 6.0 13.0 0.00 0.00 0.00 70 1011.9
20260903192516 89 135 11.0 16.0 0.00 0.00 0.00 69 1012.1
20260903191516 89 158 5.0 13.0 0.00 0.00 0.00 70 1012.2
20260903190516 88 135 11.0 16.0 0.00 0.00 0.00 70 1012.2
20260903185516 88 135 12.0 18.0 0.00 0.00 0.00 71 1012.5
20260903184516 88 135 8.0 13.0 0.00 0.00 0.00 71 1012.5
20260903183516 88 113 12.0 17.0 0.00 0.00 0.00 71 1012.7
20260903182516 88 135 12.0 20.0 0.00 0.00 0.00 70 1012.9
20260903181516 88 135 11.0 19.0 0.00 0.00 0.00 68 1012.9
20260903180516 89 135 12.0 17.0 0.00 0.00 0.00 67 1013.0
20260903175516 88 113 12.0 17.0 0.00 0.00 0.00 68 1013.1
20260903174516 88 135 12.0 19.0 0.00 0.00 0.00 69 1013.2
20260903173516 88 135 11.0 18.0 0.00 0.00 0.00 69 1013.4
20260903172516 88 113 11.0 17.0 0.00 0.00 0.00 69 1013.5
20260903171556 87 113 9.0 15.0 0.00 0.00 0.00 71 1013.6
20260903170536 87 135 9.0 16.0 0.00 0.00 0.00 71 1013.6
20260903165516 87 135 7.0 13.0 0.00 0.00 0.00 73 1013.6